FENGYUN 1C DEB, 33710

Orbit data source: Space-Track

FENGYUN 1C DEB, 33710 is space debris in SSO originally from a launch on Mon, 10 May 1999 UTC launched from the Taiyaun Space Center, China (TSC). Fengyun 1C debris stems from the Chinese weather satellite Fengyun-1C, which was intentionally destroyed by a Chinese anti-satellite missile in 2007. This event dramatically increased the amount of space debris, with thousands of trackable fragments posing hazards to satellites and human spaceflight. The Fengyun 1C debris cloud has become a focal point in discussions about space sustainability and the need for international regulations to prevent the creation of new debris.

Loading next visibility...
Identifier
33710, 1999-025DGX
Orbit
SSO
Country
Flag of CNCN / PRC
Related business
Manufacturer
Unknown
Mission
Spacecraft
Bus & Motor
Unknown
Mass
Unknown
Launch date (UTC)
1999-05-10 (27 years ago)
Launch vehicle
Unknown
Launch site
Taiyaun Space Center, China (TSC)
Object type
Payload
Rocket body
Debris
Shape & HBR
Unknown shape, 0.1 m
Radar Cross Section
Small (<0.1 m²)

Expand to show TLE details & history
Last TLE update: 3 days ago

TLE from 3 days ago
0 FENGYUN 1C DEB
1 33710U 99025DGX 26034.51023599  .00001741  00000-0  96504-3 0  9998
2 33710  98.9767 138.3986 0053254 358.7361   1.3667 14.11868745684019
Epoch: 2026-02-03T12:14Z
TLE epoch observation values (Epoch: 2026-02-03T12:14:44.389Z)
Latitude
-0.00006°
Longitude
-178.97648°
Altitude
817.374 km
Speed
7.464 km/s
True Right ascension
09h 13m 35s
True Declination
0° 00' 00"
Sunlit
Object was in full shadow at epoch
Visualization orbit readout
Latitude
Unknown
Longitude
Unknown
Altitude
Unknown
Speed
Unknown
Apparent Right ascension
Unknown
Apparent Declination
Unknown
Sunlit
N/A
Visualization observer readout
Local Sidereal Time
01:39:43
Azimuth
Unknown
Elevation
Unknown
Doppler factor
Unknown
Orbital elements
Apogee altitude
888.66 km
Perigee altitude
811.673 km
Semi-major axis
7,228.303 km
Eccentricity
0.00533
Inclination
98.9767°
RAAN
138.3986°
Arg. of periapsis
358.7361°
True anomaly
1.38135°
Mean anomaly
1.3667°
Eccentric anomaly
1.37402°
Mean motion
3.53174 °/min
Orbital period
101.93 mins
BSTAR
0.00096504
Loading maneuver chart data...
Computing Atmospheric mass density...

Documentation

Showing up to 5 results
|